Flag for Germany

Past Weather in 48°29'57"N, 9°12'57"E, Germany — Yesterday and Last 2 Weeks

Now
64 °F

Clear.


Feels Like: 64 °F
Forecast: 82 / 62 °F
Wind: 1 mph from North

Location: Stuttgart-Echterdingen
Current Time: Aug 15, 2020 at 4:55:00 am
Latest Report: Aug 15, 2020 at 4:20 am
Visibility: 10 mi
Pressure30.01 "Hg
Humidity: 88%
Dew Point: 61 °F
Location of 48°29'57"N, 9°12'57"ELocation

Past Weather in 48°29'57"N, 9°12'57"E — Graph

°F

48°29'57"N, 9°12'57"E Temperature Yesterday

Maximum temperature yesterday: 77 °F (at 2:20 pm)
Minimum temperature yesterday: 63 °F (at 6:20 am)
Average temperature yesterday: 70 °F

High & Low Weather Summary for the Past Weeks

 TemperatureHumidityPressure
High95 °F (Jul 31, 2:50 pm)100% (Aug 5, 2:20 am)30.18 "Hg (Aug 5, 2:20 am)
Low48 °F (Aug 5, 5:50 am)19% (Jul 31, 2:50 pm)29.86 "Hg (Aug 3, 12:50 pm)
Average73 °F61%30.03 "Hg
* Reported Jul 31 3:20 am — Aug 15 3:50 am, 48°29'57"N, 9°12'57"E. Weather by CustomWeather, © 2020

Note: Actual official high and low records may vary slightly from our data, if they occured in-between our weather recording intervals... More about our weather records

48°29'57"N, 9°12'57"E Weather History for the Previous 24 Hours

Scroll right to see more
 ConditionsComfort  
Time TempWeatherWind HumidityBarometerVisibility
3:50 am
Sat, Aug 15
64 °FClear.2 mph88%30.01 "Hg10 mi
3:20 am63 °FPassing clouds.2 mph94%30.01 "HgN/A
2:50 am64 °FPassing clouds.1 mph88%30.01 "HgN/A
2:20 am64 °FPassing clouds.2 mph94%30.01 "HgN/A
1:50 am64 °FPassing clouds.2 mph94%30.01 "HgN/A
1:20 am64 °FPassing clouds.2 mph88%30.01 "HgN/A
12:50 am66 °FPassing clouds.2 mph83%30.01 "HgN/A
12:20 am66 °FPassing clouds.3 mph88%30.01 "HgN/A
11:50 pm
Fri, Aug 14
66 °FPassing clouds.3 mph83%30.01 "HgN/A
11:20 pm66 °FPassing clouds.2 mph88%30.01 "HgN/A
10:50 pm68 °FPassing clouds.3 mph83%30.01 "HgN/A
10:20 pm68 °FClear.2 mph78%30.01 "Hg10 mi
9:50 pm68 °FClear.6 mph83%30.01 "Hg10 mi
9:20 pm68 °FPassing clouds.5 mph83%30.01 "HgN/A
8:50 pm68 °FPassing clouds.5 mph83%30.01 "HgN/A
8:20 pm70 °FPassing clouds.3 mph78%29.98 "HgN/A
7:50 pm72 °FPassing clouds.3 mph69%29.98 "HgN/A
7:20 pm72 °FPassing clouds.5 mph69%29.98 "HgN/A
6:50 pm73 °FPassing clouds.5 mph65%29.98 "HgN/A
6:20 pm73 °FPassing clouds.2 mph61%29.98 "HgN/A
5:50 pm75 °FPassing clouds.3 mph57%29.98 "HgN/A
5:20 pm75 °FPassing clouds.3 mph54%29.98 "HgN/A
4:50 pm75 °FScattered showers. Passing clouds.6 mph57%29.98 "HgN/A
4:20 pm73 °FScattered showers. Passing clouds.6 mph65%29.98 "HgN/A
3:50 pm73 °FScattered showers. Passing clouds.8 mph69%29.98 "HgN/A
3:20 pm77 °FScattered showers. Passing clouds.5 mph54%30.01 "HgN/A
2:50 pm77 °FScattered showers. Passing clouds.6 mph54%30.01 "HgN/A
2:20 pm77 °FScattered showers. Passing clouds.7 mph57%30.01 "HgN/A
1:50 pm75 °FPassing clouds.8 mph61%30.01 "HgN/A
1:20 pm75 °FPassing clouds.7 mph57%30.01 "HgN/A
12:50 pm73 °FPassing clouds.8 mph65%30.01 "HgN/A
12:20 pm72 °FSprinkles. Scattered clouds.5 mph73%30.01 "HgN/A
11:50 am72 °FSprinkles. Scattered clouds.6 mph69%30.04 "HgN/A
11:20 am73 °FScattered showers. Scattered clouds.8 mph61%30.01 "HgN/A
10:50 am73 °FScattered showers. Passing clouds.6 mph65%30.01 "HgN/A
10:20 am73 °FScattered showers. Passing clouds.6 mph65%30.01 "HgN/A
9:50 am72 °FPassing clouds.7 mph69%30.01 "HgN/A
9:20 am70 °FPassing clouds.6 mph73%30.01 "HgN/A
8:50 am70 °FPassing clouds.5 mph69%30.01 "HgN/A
8:20 am70 °FPassing clouds.2 mph69%29.98 "HgN/A
7:50 am70 °FPassing clouds.2 mph69%29.98 "HgN/A
7:20 am68 °FPassing clouds.1 mph78%29.98 "HgN/A
6:50 am64 °FPassing clouds.2 mph88%29.98 "HgN/A
6:20 am63 °FPassing clouds.2 mph94%29.98 "HgN/A
5:50 am64 °FClear.2 mph88%29.98 "Hg10 mi
5:20 am66 °FClear.2 mph83%29.98 "Hg10 mi
4:50 am66 °FClear.1 mph88%29.98 "Hg10 mi
4:20 am66 °FClear.1 mph88%29.98 "Hg10 mi
Weather by CustomWeather, © 2020

See weather overview